GFSNIL_prec_kuchsnow_171.txt.gz
Snowfall_Accumulation
0.0 0.0 0.0 0.0 0.0 0.0 0.0 0.0 0.0 0.0 0.0 0.0 0.0 0.0 0.0 0.0 0.0 0.0 0.0 0.0 0.0 0.0
0.0 0.0 0.0 0.0 0.0 0.0 0.0 0.0 0.0 0.0 0.0 0.0 0.0 0.0 0.0 0.0 0.0 0.0 0.0 0.0 0.0 0.0
0.0 0.0 0.0 0.0 0.0 0.0 0.0 0.0 0.0 0.0 0.0 0.0 0.0 0.0 0.0 0.0 0.0 0.0 0.0 0.0 0.0 0.0
0.0 0.0 0.0 0.0 0.0 0.0 0.0 0.0 0.0 0.0 0.0 0.0 0.0 0.0 0.0 0.0 0.0 0.0 0.0 0.0 0.0 0.0
0.0 0.0 0.0 0.0 0.0 0.0 0.0 0.0 0.0 0.0 0.0 0.0 0.0 0.0 0.0 0.0 0.0 0.0 0.0 0.0 0.0 0.1
0.0 0.0 0.0 0.1 0.1 0.0 0.0 0.0 0.0 0.0 0.0 0.0 0.0 0.0 0.0 0.1 0.0 0.0 0.0 0.1 0.1 0.1
0.1 0.2 0.2 0.2 0.2 0.0 0.0 0.0 0.0 0.0 0.1 0.1 0.1 0.1 0.2 0.1 0.0 0.0 0.1 0.2 0.2 0.5
0.7 0.6 0.5 0.6 0.8 0.7 0.4 0.7 0.5 0.5 1.4 1.6 1.7 1.6 1.1 0.3 0.2 0.2 0.2 0.2 0.4 0.9
2.1 2.2 2.5 2.4 3.0 1.4 1.8 2.3 3.1 2.7 2.7 3.0 2.1 2.0 1.6 1.0 0.9 0.9 1.4 1.4 0.8 1.2
3.7 3.9 4.5 3.4 2.5 3.3 3.9 3.0 3.2 5.1 6.8 5.7 4.9 3.4 4.1 3.3 3.3 3.7 4.3 4.3 3.3 2.4
3.7 4.6 3.6 3.7 4.7 5.9 5.1 5.8 6.2 5.9 8.3 6.4 7.9 5.6 7.4 8.0 9.1 8.5 9.1 10.5 8.5 7.5
2.3 3.4 2.5 2.5 3.3 5.6 5.7 8.4 9.0 6.4 5.2 6.2 8.2 5.1 4.7 6.3 8.2 8.5 8.5 9.5 10.3 9.3
5.2 3.7 2.7 2.8 3.6 6.6 5.2 7.1 7.3 8.4 11.7 8.6 10.6 4.1 2.7 3.0 4.9 6.6 10.3 7.2 5.9 6.4
7.3 6.6 7.9 12.2 7.3 11.0 11.4 10.6 9.2 9.2 8.3 8.3 7.6 12.0 10.0 7.4 8.6 9.7 7.0 7.5 8.8 11.6

GFSNIL_prec_kuchsnow_174.txt.gz
Snowfall_Accumulation
0.0 0.0 0.0 0.0 0.0 0.0 0.0 0.0 0.0 0.0 0.0 0.0 0.0 0.0 0.0 0.0 0.0 0.0 0.0 0.0 0.0 0.0
0.0 0.0 0.0 0.0 0.0 0.0 0.0 0.0 0.0 0.0 0.0 0.0 0.0 0.0 0.0 0.0 0.0 0.0 0.0 0.0 0.0 0.0
0.0 0.0 0.0 0.0 0.0 0.0 0.0 0.0 0.0 0.0 0.0 0.0 0.0 0.0 0.0 0.0 0.0 0.0 0.0 0.0 0.0 0.0
0.0 0.0 0.0 0.0 0.0 0.0 0.0 0.0 0.0 0.0 0.0 0.0 0.0 0.0 0.0 0.0 0.0 0.0 0.0 0.0 0.0 0.0
0.0 0.0 0.0 0.0 0.0 0.0 0.0 0.0 0.0 0.0 0.0 0.0 0.0 0.0 0.0 0.0 0.0 0.0 0.0 0.0 0.0 0.1
0.0 0.0 0.0 0.1 0.1 0.0 0.0 0.0 0.0 0.0 0.0 0.0 0.0 0.0 0.0 0.1 0.0 0.1 0.1 0.1 0.1 0.1
0.1 0.2 0.2 0.2 0.2 0.0 0.0 0.0 0.0 0.0 0.1 0.1 0.1 0.1 0.2 0.4 0.0 0.2 0.1 0.2 0.2 0.5
0.7 0.6 0.5 0.6 0.8 0.7 0.4 0.7 0.5 0.5 1.4 1.6 1.7 1.9 1.7 1.1 0.7 0.2 0.3 0.2 0.4 0.9
2.1 2.2 2.5 2.4 3.0 1.4 1.8 2.3 3.1 2.7 2.7 3.0 2.5 2.2 2.0 1.7 1.4 0.9 1.5 1.5 0.8 1.2
3.7 3.9 4.5 3.4 2.5 3.3 3.9 3.0 3.2 5.1 6.9 5.7 4.9 3.6 4.7 4.0 4.0 4.3 4.7 4.5 3.4 2.4
3.7 4.6 3.6 3.7 4.7 5.9 5.1 5.8 6.2 6.0 8.4 6.6 7.9 5.6 7.8 9.0 10.3 9.4 9.4 10.6 8.5 7.5
2.3 3.4 2.5 2.5 3.3 5.6 5.7 8.4 9.0 6.4 5.3 6.3 8.4 5.3 5.1 7.2 9.0 9.1 8.7 9.5 10.3 9.3
5.2 3.7 2.7 2.8 3.6 6.6 5.2 7.1 7.3 8.4 11.7 8.7 10.9 4.4 3.1 3.5 5.4 6.9 10.4 7.2 5.9 6.4
7.3 6.6 7.9 12.2 7.3 11.0 11.4 10.6 9.2 9.2 8.5 8.4 7.7 12.1 10.0 7.5 8.6 9.7 7.0 7.5 8.8 11.6

GFSNIL_prec_kuchsnow_180.txt.gz
Snowfall_Accumulation
0.0 0.0 0.0 0.0 0.0 0.0 0.0 0.0 0.0 0.0 0.0 0.0 0.0 0.0 0.0 0.0 0.0 0.0 0.0 0.0 0.0 0.0
0.0 0.0 0.0 0.0 0.0 0.0 0.0 0.0 0.0 0.0 0.0 0.0 0.0 0.0 0.0 0.0 0.0 0.0 0.0 0.0 0.0 0.0
0.0 0.0 0.0 0.0 0.0 0.0 0.0 0.0 0.0 0.0 0.0 0.0 0.0 0.0 0.0 0.0 0.0 0.0 0.0 0.0 0.0 0.0
0.0 0.0 0.0 0.0 0.0 0.0 0.0 0.0 0.0 0.0 0.0 0.0 0.0 0.0 0.0 0.0 0.0 0.0 0.0 0.0 0.0 0.0
0.0 0.0 0.0 0.0 0.0 0.0 0.0 0.0 0.0 0.0 0.0 0.0 0.0 0.0 0.0 0.0 0.0 0.0 0.0 0.0 0.0 0.1
0.0 0.0 0.0 0.1 0.1 0.0 0.0 0.0 0.0 0.0 0.0 0.0 0.0 0.0 0.0 0.1 0.0 0.1 0.1 0.1 0.1 0.1
0.1 0.2 0.2 0.2 0.2 0.0 0.0 0.0 0.0 0.0 0.1 0.1 0.1 0.1 0.2 0.4 0.0 0.2 0.2 0.2 0.2 0.5
0.7 0.6 0.5 0.6 0.8 0.7 0.4 0.7 0.5 0.5 1.4 1.6 1.7 1.9 1.7 1.1 0.7 0.2 0.3 0.2 0.4 0.9
2.1 2.2 2.5 2.4 3.0 1.4 1.8 2.3 3.1 2.7 2.7 3.0 2.5 2.2 2.0 1.7 1.4 0.9 1.5 1.5 0.8 1.2
3.7 3.9 4.5 3.4 2.5 3.3 3.9 3.0 3.2 5.1 6.9 5.7 4.9 3.7 4.7 4.0 4.0 4.3 4.7 4.5 3.4 2.4
3.7 4.6 3.6 3.7 4.7 5.9 5.1 5.8 6.2 6.0 8.4 6.7 7.9 5.6 7.8 9.0 10.5 9.7 9.9 10.6 8.9 7.9
2.3 3.4 2.5 2.5 3.3 5.6 5.7 8.4 9.0 6.4 5.3 6.3 8.4 5.3 5.1 7.2 9.0 9.4 9.4 10.3 10.8 9.7
5.2 3.7 2.7 2.8 3.6 6.6 5.2 7.1 7.3 8.4 11.7 8.7 10.9 4.4 3.1 3.5 5.4 7.3 11.0 7.7 6.0 6.6
7.3 6.6 7.9 12.2 7.3 11.0 11.4 10.6 9.2 9.2 8.5 8.4 7.7 12.1 10.0 7.5 8.6 9.7 7.1 7.5 8.8 11.6

GFSNIL_prec_kuchsnow_183.txt.gz
Snowfall_Accumulation
0.0 0.0 0.0 0.0 0.0 0.0 0.0 0.0 0.0 0.0 0.0 0.0 0.0 0.0 0.0 0.0 0.0 0.0 0.0 0.0 0.0 0.0
0.0 0.0 0.0 0.0 0.0 0.0 0.0 0.0 0.0 0.0 0.0 0.0 0.0 0.0 0.0 0.0 0.0 0.0 0.0 0.0 0.0 0.0
0.0 0.0 0.0 0.0 0.0 0.0 0.0 0.0 0.0 0.0 0.0 0.0 0.0 0.0 0.0 0.0 0.0 0.0 0.0 0.0 0.0 0.0
0.0 0.0 0.0 0.0 0.0 0.0 0.0 0.0 0.0 0.0 0.0 0.0 0.0 0.0 0.0 0.0 0.0 0.0 0.0 0.0 0.0 0.0
0.0 0.0 0.0 0.0 0.0 0.0 0.0 0.0 0.0 0.0 0.0 0.0 0.0 0.0 0.0 0.0 0.0 0.0 0.0 0.0 0.0 0.1
0.0 0.0 0.0 0.1 0.1 0.0 0.0 0.0 0.0 0.0 0.0 0.0 0.0 0.0 0.0 0.1 0.0 0.1 0.1 0.1 0.1 0.1
0.1 0.2 0.2 0.2 0.2 0.0 0.0 0.0 0.0 0.0 0.1 0.1 0.1 0.1 0.2 0.4 0.0 0.2 0.2 0.2 0.2 0.5
0.7 0.6 0.5 0.6 0.8 0.7 0.4 0.7 0.5 0.5 1.4 1.6 1.7 1.9 1.7 1.1 0.7 0.2 0.3 0.2 0.4 0.9
2.1 2.2 2.5 2.4 3.0 1.4 1.8 2.3 3.1 2.7 2.7 3.0 2.5 2.2 2.0 1.7 1.4 0.9 1.5 1.5 0.8 1.2
3.7 3.9 4.5 3.4 2.5 3.3 3.9 3.0 3.2 5.1 6.9 5.7 4.9 3.7 4.7 4.0 4.0 4.3 4.7 4.5 3.4 2.4
3.7 4.6 3.6 3.7 4.7 5.9 5.1 5.8 6.2 6.0 8.4 6.7 7.9 5.6 7.8 9.0 10.5 9.7 9.9 10.6 8.9 7.9
2.3 3.4 2.5 2.5 3.3 5.6 5.7 8.4 9.0 6.4 5.3 6.3 8.4 5.3 5.1 7.2 9.0 9.4 9.4 10.3 10.8 9.7
5.2 3.7 2.7 2.8 3.6 6.6 5.2 7.1 7.3 8.4 11.7 8.7 10.9 4.4 3.1 3.5 5.4 7.3 11.0 7.7 6.0 6.6
7.3 6.6 7.9 12.2 7.3 11.0 11.4 10.6 9.2 9.2 8.5 8.4 7.7 12.1 10.0 7.5 8.6 9.7 7.1 7.5 8.9 11.6